When you browse on this site, cookies collect data to enhance your experience and personalize the content and advertising you see.
Visit our Privacy Policy to learn more. By continuing to use the site, you agree to this use of cookies and data.
  • In France
  • List of Countries
  • For 7 days
  • Water Temperature
  • Satellite Maps
  • Weather Map
  • Weather Widgets
  • user-avatar
    Login

    Hourly Weather Asadabad

    Today, 17 November, Saturday

    Time Temperature Precipitation Wind Pressure Humidity
    00:00 +10°C° 0 mm 3 mps 658 mmHg 26%
    01:00 +9°C° 0 mm 3 mps 658 mmHg 25%
    02:00 +9°C° 0 mm 3 mps 657 mmHg 24%
    03:00 +9°C° 0 mm 3 mps 657 mmHg 23%
    04:00 +9°C° 0 mm 3 mps 657 mmHg 22%
    05:00 +8°C° 0 mm 3 mps 657 mmHg 21%
    06:00 +9°C° 0 mm 3 mps 657 mmHg 21%
    07:00 +10°C° 0 mm 3 mps 657 mmHg 21%
    08:00 +11°C° 0 mm 3 mps 657 mmHg 20%
    09:00 +14°C° 0 mm 2 mps 657 mmHg 18%
    10:00 +16°C° 0 mm 2 mps 657 mmHg 16%
    11:00 +19°C° 0 mm 1 mps 658 mmHg 14%
    12:00 +20°C° 0 mm 1 mps 657 mmHg 14%
    13:00 +19°C° 0 mm 2 mps 657 mmHg 15%
    14:00 +19°C° 0 mm 2 mps 657 mmHg 16%
    15:00 +19°C° 0 mm 1 mps 656 mmHg 20%
    16:00 +16°C° 0 mm 1 mps 656 mmHg 24%
    17:00 +14°C° 0 mm 1 mps 655 mmHg 29%
    18:00 +14°C° 0 mm 1 mps 656 mmHg 29%
    19:00 +14°C° 0 mm 1 mps 656 mmHg 30%
    20:00 +13°C° 0 mm 1 mps 656 mmHg 30%
    21:00 +13°C° 0 mm 1 mps 656 mmHg 30%
    22:00 +13°C° 0 mm 1 mps 656 mmHg 31%
    23:00 +13°C° 0 mm 1 mps 656 mmHg 31%

    Tomorrow, 18 November, Sunday

    Time Temperature Precipitation Wind Pressure Humidity
    00:00 +12°C° 0 mm 1 mps 656 mmHg 31%
    01:00 +12°C° 0 mm 1 mps 656 mmHg 32%
    02:00 +11°C° 0 mm 1 mps 656 mmHg 32%
    03:00 +10°C° 0 mm 2 mps 656 mmHg 32%
    04:00 +9°C° 0 mm 2 mps 656 mmHg 33%
    05:00 +9°C° 0 mm 2 mps 656 mmHg 33%
    06:00 +9°C° 0 mm 2 mps 656 mmHg 33%
    07:00 +10°C° 0 mm 2 mps 657 mmHg 33%
    08:00 +12°C° 0 mm 2 mps 657 mmHg 32%
    09:00 +14°C° 0 mm 2 mps 658 mmHg 29%
    10:00 +15°C° 0 mm 1 mps 659 mmHg 25%
    11:00 +18°C° 0 mm 1 mps 659 mmHg 21%
    12:00 +19°C° 0 mm 1 mps 659 mmHg 21%
    13:00 +18°C° 0 mm 2 mps 659 mmHg 21%
    14:00 +18°C° 0 mm 2 mps 658 mmHg 22%
    15:00 +18°C° 0 mm 1 mps 658 mmHg 26%
    16:00 +15°C° 0 mm 1 mps 658 mmHg 30%
    17:00 +14°C° 0 mm 1 mps 657 mmHg 34%
    18:00 +13°C° 0 mm 1 mps 658 mmHg 34%
    19:00 +13°C° 0 mm 1 mps 658 mmHg 34%
    20:00 +12°C° 0 mm 1 mps 658 mmHg 34%
    21:00 +12°C° 0 mm 2 mps 659 mmHg 34%
    22:00 +10°C° 0 mm 2 mps 659 mmHg 35%
    23:00 +10°C° 0 mm 2 mps 659 mmHg 35%

    Day after tomorrow, 19 November, Monday

    Time Temperature Precipitation Wind Pressure Humidity
    00:00 +10°C° 0 mm 2 mps 659 mmHg 36%
    01:00 +10°C° 0 mm 2 mps 659 mmHg 36%
    02:00 +9°C° 0 mm 2 mps 659 mmHg 37%
    03:00 +9°C° 0 mm 2 mps 659 mmHg 37%
    04:00 +9°C° 0 mm 2 mps 658 mmHg 38%
    05:00 +9°C° 0 mm 2 mps 658 mmHg 38%
    06:00 +9°C° 0 mm 2 mps 659 mmHg 38%
    07:00 +10°C° 0 mm 2 mps 660 mmHg 37%
    08:00 +10°C° 0 mm 2 mps 660 mmHg 36%
    09:00 +13°C° 0 mm 2 mps 661 mmHg 32%
    10:00 +15°C° 0 mm 2 mps 661 mmHg 29%
    11:00 +18°C° 0 mm 1 mps 661 mmHg 25%
    12:00 +18°C° 0 mm 1 mps 661 mmHg 25%
    13:00 +17°C° 0 mm 2 mps 661 mmHg 25%
    14:00 +18°C° 0 mm 2 mps 661 mmHg 25%
    15:00 +16°C° 0 mm 1 mps 660 mmHg 29%
    16:00 +15°C° 0 mm 1 mps 660 mmHg 34%
    17:00 +14°C° 0 mm 1 mps 660 mmHg 38%
    18:00 +13°C° 0 mm 1 mps 660 mmHg 38%
    19:00 +13°C° 0 mm 1 mps 660 mmHg 37%
    20:00 +12°C° 0 mm 2 mps 660 mmHg 37%
    21:00 +12°C° 0 mm 2 mps 660 mmHg 37%
    22:00 +10°C° 0 mm 2 mps 660 mmHg 37%
    23:00 +10°C° 0 mm 2 mps 660 mmHg 37%

    20 November, Tuesday

    Time Temperature Precipitation Wind Pressure Humidity
    00:00 +10°C° 0 mm 2 mps 660 mmHg 36%
    01:00 +9°C° 0 mm 2 mps 660 mmHg 36%
    02:00 +9°C° 0 mm 3 mps 660 mmHg 36%
    03:00 +9°C° 0 mm 3 mps 660 mmHg 35%
    04:00 +8°C° 0 mm 3 mps 660 mmHg 35%
    05:00 +8°C° 0 mm 3 mps 660 mmHg 34%
    06:00 +9°C° 0 mm 3 mps 660 mmHg 33%
    07:00 +9°C° 0 mm 2 mps 661 mmHg 32%
    08:00 +10°C° 0 mm 2 mps 661 mmHg 31%
    09:00 +13°C° 0 mm 2 mps 662 mmHg 28%
    10:00 +15°C° 0 mm 2 mps 662 mmHg 26%
    11:00 +18°C° 0 mm 1 mps 662 mmHg 23%
    12:00 +18°C° 0 mm 1 mps 662 mmHg 24%
    13:00 +18°C° 0 mm 2 mps 661 mmHg 24%
    14:00 +18°C° 0 mm 2 mps 661 mmHg 24%
    15:00 +16°C° 0 mm 1 mps 660 mmHg 29%
    16:00 +15°C° 0 mm 1 mps 660 mmHg 34%
    17:00 +14°C° 0 mm 1 mps 659 mmHg 38%
    18:00 +13°C° 0 mm 1 mps 660 mmHg 38%
    19:00 +12°C° 0 mm 1 mps 660 mmHg 37%
    20:00 +12°C° 0 mm 2 mps 661 mmHg 37%
    21:00 +10°C° 0 mm 2 mps 661 mmHg 36%
    22:00 +10°C° 0 mm 2 mps 661 mmHg 35%
    23:00 +10°C° 0 mm 2 mps 661 mmHg 33%

    21 November, Wednesday

    Time Temperature Precipitation Wind Pressure Humidity
    00:00 +10°C° 0 mm 2 mps 660 mmHg 32%
    01:00 +9°C° 0 mm 3 mps 660 mmHg 31%
    02:00 +9°C° 0 mm 3 mps 660 mmHg 30%
    03:00 +9°C° 0 mm 3 mps 660 mmHg 30%
    04:00 +9°C° 0 mm 3 mps 659 mmHg 29%
    05:00 +8°C° 0 mm 3 mps 659 mmHg 28%
    06:00 +9°C° 0 mm 3 mps 659 mmHg 27%
    07:00 +10°C° 0 mm 3 mps 660 mmHg 26%
    08:00 +10°C° 0 mm 3 mps 660 mmHg 25%
    09:00 +13°C° 0 mm 2 mps 660 mmHg 22%
    10:00 +15°C° 0 mm 2 mps 661 mmHg 19%
    11:00 +18°C° 0 mm 1 mps 661 mmHg 16%
    12:00 +19°C° 0 mm 1 mps 660 mmHg 17%
    13:00 +19°C° 0 mm 1 mps 660 mmHg 17%
    14:00 +19°C° 0 mm 2 mps 659 mmHg 18%
    15:00 +18°C° 0 mm 1 mps 659 mmHg 22%
    16:00 +15°C° 0 mm 1 mps 658 mmHg 25%
    17:00 +14°C° 0 mm 1 mps 658 mmHg 29%
    18:00 +13°C° 0 mm 1 mps 658 mmHg 28%
    19:00 +13°C° 0 mm 1 mps 659 mmHg 27%
    20:00 +13°C° 0 mm 1 mps 659 mmHg 26%
    21:00 +13°C° 0 mm 2 mps 659 mmHg 25%
    22:00 +13°C° 0 mm 2 mps 659 mmHg 24%
    23:00 +13°C° 0 mm 2 mps 659 mmHg 24%

    22 November, Thursday

    Time Temperature Precipitation Wind Pressure Humidity
    00:00 +13°C° 0.1 mm 2 mps 659 mmHg 26%
    01:00 +13°C° 0.1 mm 2 mps 659 mmHg 29%
    02:00 +12°C° 0.1 mm 3 mps 659 mmHg 31%
    03:00 +11°C° 0.1 mm 3 mps 659 mmHg 36%
    04:00 +11°C° 0.1 mm 3 mps 659 mmHg 40%
    05:00 +11°C° 0.1 mm 3 mps 659 mmHg 44%
    06:00 +11°C° 0.1 mm 3 mps 659 mmHg 46%
    07:00 +12°C° 0.1 mm 2 mps 660 mmHg 47%
    08:00 +12°C° 0.1 mm 2 mps 660 mmHg 49%
    09:00 +12°C° 0.3 mm 2 mps 660 mmHg 49%
    10:00 +13°C° 0.3 mm 2 mps 660 mmHg 50%
    11:00 +13°C° 0.3 mm 2 mps 661 mmHg 51%
    12:00 +12°C° 0.8 mm 2 mps 660 mmHg 56%
    13:00 +12°C° 0.8 mm 2 mps 660 mmHg 60%
    14:00 +10°C° 0.8 mm 2 mps 659 mmHg 64%
    15:00 +10°C° 0.1 mm 2 mps 659 mmHg 67%
    16:00 +11°C° 0.1 mm 1 mps 659 mmHg 69%
    17:00 +10°C° 0.1 mm 1 mps 659 mmHg 71%
    18:00 +10°C° 0 mm 1 mps 659 mmHg 72%
    19:00 +9°C° 0 mm 1 mps 660 mmHg 72%
    20:00 +9°C° 0 mm 1 mps 660 mmHg 73%
    21:00 +8°C° 0 mm 2 mps 660 mmHg 71%
    22:00 +8°C° 0 mm 2 mps 660 mmHg 69%
    23:00 +7°C° 0 mm 2 mps 660 mmHg 67%
    Show more